Hiyodori — JD2366 — position and weather

sailwx.info

Track history (hours):
 
Tides and Currents Weather Stations Pressure Air Temp Water Temp Dewpoint Dewpoint Depression Visibility Wind Speed Wind Dir Waves Ship Positions

Hiyodori

Last reported at 2014-Oct-31 22:33 UTC. Time now 2014-Oct-31 22:54 UTC.
Position N 34°41' E 135°12'.

Length 88 m; draft 3.6 m.

Type: Cargo ship. MMSI: 431000132.

Date/timePositionNaut miles runAvg speedWind from/ knotsBaromVisibWave heightAir tempDewpointWater temp
2014-Oct-31 22:33N 34°41' E 135°12'0 0.0
2014-Oct-31 21:33N 34°41' E 135°12'0 0.0
2014-Oct-31 20:33N 34°41' E 135°12'0 0.0
2014-Oct-31 19:33N 34°41' E 135°12'0 0.0
2014-Oct-31 18:34N 34°41' E 135°12'0 0.0
2014-Oct-31 17:34N 34°41' E 135°12'0 0.0
2014-Oct-31 16:33N 34°41' E 135°12'0 0.0
2014-Oct-31 15:34N 34°41' E 135°12'0 0.0
2014-Oct-31 14:33N 34°41' E 135°12'0 0.0
2014-Oct-31 13:34N 34°41' E 135°12'0 0.0
2014-Oct-31 12:34N 34°41' E 135°12'0 0.0
2014-Oct-31 11:34N 34°41' E 135°12'0 0.0
2014-Oct-31 10:34N 34°41' E 135°12'0 0.0
2014-Oct-31 09:33N 34°41' E 135°12'0 0.0
2014-Oct-31 08:33N 34°41' E 135°12'3 3.5
2014-Oct-31 07:33N 34°41' E 135°17'1 0.6
2014-Oct-31 06:33N 34°41' E 135°17'0 0.0
2014-Oct-31 05:33N 34°41' E 135°17'0 0.0
2014-Oct-31 04:32N 34°41' E 135°17'0 0.0
2014-Oct-31 03:33N 34°41' E 135°17'0 0.0
2014-Oct-31 02:33N 34°41' E 135°17'3 2.6
2014-Oct-31 01:33N 34°40' E 135°15'0 0.3
2014-Oct-31 00:33N 34°40' E 135°14'9 8.9
2014-Oct-30 23:33N 34°38' E 135°25'3 3.5
2014-Oct-30 22:33N 34°37' E 135°21'2 2.4
2014-Oct-30 21:33N 34°36' E 135°18'6 5.6
2014-Oct-30 20:34N 34°35' E 135°11'1211.5
2014-Oct-30 19:32N 34°36' E 134°57'12010.8
2014-Oct-30 08:25N 34°04' E 132°37'17 9.1
2014-Oct-30 06:32N 34°16' E 132°22'4 1.4
2014-Oct-30 03:32N 34°19' E 132°25'11 5.2
2014-Oct-30 01:27N 34°13' E 132°15'0 0.0
2014-Oct-30 00:31N 34°13' E 132°15'0 0.2
2014-Oct-29 23:34N 34°13' E 132°15'0 0.0
2014-Oct-29 22:33N 34°13' E 132°15'8 8.4
2014-Oct-29 21:34N 34°08' E 132°23'12012.0
2014-Oct-29 11:32N 34°33' E 134°46'1212.8
2014-Oct-29 10:33N 34°37' E 134°60'1211.5
2014-Oct-29 09:33N 34°37' E 135°13'3 2.7
2014-Oct-29 08:33N 34°40' E 135°14'2 1.5
2014-Oct-29 07:34N 34°40' E 135°15'2 1.7
2014-Oct-29 06:33N 34°41' E 135°17'7 6.8
2014-Oct-29 05:33N 34°35' E 135°12'1412.8
2014-Oct-29 04:29N 34°35' E 134°56'115 6.3
2014-Oct-28 10:03N 34°05' E 132°41'15 9.7
2014-Oct-28 08:29N 34°08' E 132°23'1011.0
2014-Oct-28 07:33N 34°18' E 132°25'3 3.1
2014-Oct-28 06:33N 34°21' E 132°26'0 0.0
2014-Oct-28 05:33N 34°21' E 132°26'0 0.0
2014-Oct-28 04:33N 34°21' E 132°26'8 8.1
2014-Oct-28 03:31N 34°14' E 132°22'120 6.6
2014-Oct-27 09:10N 34°33' E 134°46'711.6
2014-Oct-27 08:33N 34°36' E 134°54'9 9.0
2014-Oct-27 07:33N 34°36' E 135°05'1111.2
2014-Oct-27 06:33N 34°40' E 135°18'1 1.3
2014-Oct-27 05:33N 34°41' E 135°17'0 0.5
2014-Oct-27 04:33N 34°41' E 135°17'2 1.7
2014-Oct-27 03:33N 34°40' E 135°15'1 0.6
2014-Oct-27 02:32N 34°39' E 135°15'0 0.0
2014-Oct-27 01:33N 34°39' E 135°15'0 0.0
2014-Oct-27 00:34N 34°39' E 135°15'2 2.4
2014-Oct-26 23:33N 34°37' E 135°16'4 3.9
2014-Oct-26 22:33N 34°35' E 135°12'1311.2
2014-Oct-26 21:23N 34°36' E 134°56'  
2014-Oct-24 09:31N 34°09' E 134°56'1313.2
2014-Oct-24 08:33N 34°21' E 135°00'1413.9
2014-Oct-24 07:34N 34°33' E 135°10'7 7.4
2014-Oct-24 06:34N 34°40' E 135°14'0 0.2
2014-Oct-24 05:33N 34°40' E 135°14'0 0.2
2014-Oct-24 04:33N 34°40' E 135°14'0 0.4
2014-Oct-24 03:33N 34°40' E 135°14'0 0.1
2014-Oct-24 02:33N 34°40' E 135°14'2 2.4
2014-Oct-24 01:33N 34°41' E 135°17'0 0.4
2014-Oct-24 00:33N 34°41' E 135°17'7 7.0
2014-Oct-23 23:33N 34°38' E 135°25'4 4.1
2014-Oct-23 22:33N 34°36' E 135°20'1 0.7
2014-Oct-23 21:33N 34°37' E 135°20'0 0.0
2014-Oct-23 20:33N 34°37' E 135°20'7 6.5
2014-Oct-23 19:33N 34°35' E 135°12'1312.6
2014-Oct-23 18:31N 34°36' E 134°56'118 8.8
2014-Oct-23 05:11N 34°05' E 132°39'15 9.5
2014-Oct-23 03:33N 34°11' E 132°22'1110.8
2014-Oct-23 02:33N 34°21' E 132°26'0 0.2
2014-Oct-23 01:34N 34°21' E 132°26'0 0.0
2014-Oct-23 00:33N 34°21' E 132°26'0 0.0
2014-Oct-22 23:33N 34°21' E 132°26'7 7.2
2014-Oct-22 22:34N 34°15' E 132°21'2 2.2
2014-Oct-22 21:33N 34°14' E 132°20'11 9.1
2014-Oct-22 20:21N 34°04' E 132°26'11912.1
2014-Oct-22 10:33N 34°33' E 134°45'1514.3
2014-Oct-22 09:29N 34°36' E 135°03'1111.4
2014-Oct-22 08:33N 34°39' E 135°16'2 1.7
2014-Oct-22 07:33N 34°40' E 135°14'3 2.6
2014-Oct-22 06:33N 34°41' E 135°17'0 0.2
2014-Oct-22 05:33N 34°41' E 135°17'3 3.2
2014-Oct-22 04:32N 34°40' E 135°14'0 0.0
2014-Oct-22 03:33N 34°40' E 135°14'3 2.8
2014-Oct-22 02:33N 34°41' E 135°17'0 0.1
2014-Oct-22 01:33N 34°41' E 135°17'1 1.3
2014-Oct-22 00:33N 34°40' E 135°15'1 1.3
2014-Oct-21 23:33N 34°40' E 135°14'3 3.1
2014-Oct-21 22:33N 34°37' E 135°15'  
Track history (hours):
 
Tides and Currents Weather Stations Pressure Air Temp Water Temp Dewpoint Dewpoint Depression Visibility Wind Speed Wind Dir Waves Ship Positions

Hiyodori

Last reported at 2014-Oct-31 22:33 UTC. Time now 2014-Oct-31 22:54 UTC.
Position N 34°41' E 135°12'.

Length 88 m; draft 3.6 m.

Type: Cargo ship. MMSI: 431000132.

Date/timePositionNaut miles runAvg speedWind from/ knotsBaromVisibWave heightAir tempDewpointWater temp
2014-Oct-31 22:33N 34°41' E 135°12'0 0.0
2014-Oct-31 21:33N 34°41' E 135°12'0 0.0
2014-Oct-31 20:33N 34°41' E 135°12'0 0.0
2014-Oct-31 19:33N 34°41' E 135°12'0 0.0
2014-Oct-31 18:34N 34°41' E 135°12'0 0.0
2014-Oct-31 17:34N 34°41' E 135°12'0 0.0
2014-Oct-31 16:33N 34°41' E 135°12'0 0.0
2014-Oct-31 15:34N 34°41' E 135°12'0 0.0
2014-Oct-31 14:33N 34°41' E 135°12'0 0.0
2014-Oct-31 13:34N 34°41' E 135°12'0 0.0
2014-Oct-31 12:34N 34°41' E 135°12'0 0.0
2014-Oct-31 11:34N 34°41' E 135°12'0 0.0
2014-Oct-31 10:34N 34°41' E 135°12'0 0.0
2014-Oct-31 09:33N 34°41' E 135°12'0 0.0
2014-Oct-31 08:33N 34°41' E 135°12'3 3.5
2014-Oct-31 07:33N 34°41' E 135°17'1 0.6
2014-Oct-31 06:33N 34°41' E 135°17'0 0.0
2014-Oct-31 05:33N 34°41' E 135°17'0 0.0
2014-Oct-31 04:32N 34°41' E 135°17'0 0.0
2014-Oct-31 03:33N 34°41' E 135°17'0 0.0
2014-Oct-31 02:33N 34°41' E 135°17'3 2.6
2014-Oct-31 01:33N 34°40' E 135°15'0 0.3
2014-Oct-31 00:33N 34°40' E 135°14'9 8.9
2014-Oct-30 23:33N 34°38' E 135°25'3 3.5
2014-Oct-30 22:33N 34°37' E 135°21'2 2.4
2014-Oct-30 21:33N 34°36' E 135°18'6 5.6
2014-Oct-30 20:34N 34°35' E 135°11'1211.5
2014-Oct-30 19:32N 34°36' E 134°57'12010.8
2014-Oct-30 08:25N 34°04' E 132°37'17 9.1
2014-Oct-30 06:32N 34°16' E 132°22'4 1.4
2014-Oct-30 03:32N 34°19' E 132°25'11 5.2
2014-Oct-30 01:27N 34°13' E 132°15'0 0.0
2014-Oct-30 00:31N 34°13' E 132°15'0 0.2
2014-Oct-29 23:34N 34°13' E 132°15'0 0.0
2014-Oct-29 22:33N 34°13' E 132°15'8 8.4
2014-Oct-29 21:34N 34°08' E 132°23'12012.0
2014-Oct-29 11:32N 34°33' E 134°46'1212.8
2014-Oct-29 10:33N 34°37' E 134°60'1211.5
2014-Oct-29 09:33N 34°37' E 135°13'3 2.7
2014-Oct-29 08:33N 34°40' E 135°14'2 1.5
2014-Oct-29 07:34N 34°40' E 135°15'2 1.7
2014-Oct-29 06:33N 34°41' E 135°17'7 6.8
2014-Oct-29 05:33N 34°35' E 135°12'1412.8
2014-Oct-29 04:29N 34°35' E 134°56'115 6.3
2014-Oct-28 10:03N 34°05' E 132°41'15 9.7
2014-Oct-28 08:29N 34°08' E 132°23'1011.0
2014-Oct-28 07:33N 34°18' E 132°25'3 3.1
2014-Oct-28 06:33N 34°21' E 132°26'0 0.0
2014-Oct-28 05:33N 34°21' E 132°26'0 0.0
2014-Oct-28 04:33N 34°21' E 132°26'8 8.1
2014-Oct-28 03:31N 34°14' E 132°22'120 6.6
2014-Oct-27 09:10N 34°33' E 134°46'711.6
2014-Oct-27 08:33N 34°36' E 134°54'9 9.0
2014-Oct-27 07:33N 34°36' E 135°05'1111.2
2014-Oct-27 06:33N 34°40' E 135°18'1 1.3
2014-Oct-27 05:33N 34°41' E 135°17'0 0.5
2014-Oct-27 04:33N 34°41' E 135°17'2 1.7
2014-Oct-27 03:33N 34°40' E 135°15'1 0.6
2014-Oct-27 02:32N 34°39' E 135°15'0 0.0
2014-Oct-27 01:33N 34°39' E 135°15'0 0.0
2014-Oct-27 00:34N 34°39' E 135°15'2 2.4
2014-Oct-26 23:33N 34°37' E 135°16'4 3.9
2014-Oct-26 22:33N 34°35' E 135°12'1311.2
2014-Oct-26 21:23N 34°36' E 134°56'  
2014-Oct-24 09:31N 34°09' E 134°56'1313.2
2014-Oct-24 08:33N 34°21' E 135°00'1413.9
2014-Oct-24 07:34N 34°33' E 135°10'7 7.4
2014-Oct-24 06:34N 34°40' E 135°14'0 0.2
2014-Oct-24 05:33N 34°40' E 135°14'0 0.2
2014-Oct-24 04:33N 34°40' E 135°14'0 0.4
2014-Oct-24 03:33N 34°40' E 135°14'0 0.1
2014-Oct-24 02:33N 34°40' E 135°14'2 2.4
2014-Oct-24 01:33N 34°41' E 135°17'0 0.4
2014-Oct-24 00:33N 34°41' E 135°17'7 7.0
2014-Oct-23 23:33N 34°38' E 135°25'4 4.1
2014-Oct-23 22:33N 34°36' E 135°20'1 0.7
2014-Oct-23 21:33N 34°37' E 135°20'0 0.0
2014-Oct-23 20:33N 34°37' E 135°20'7 6.5
2014-Oct-23 19:33N 34°35' E 135°12'1312.6
2014-Oct-23 18:31N 34°36' E 134°56'118 8.8
2014-Oct-23 05:11N 34°05' E 132°39'15 9.5
2014-Oct-23 03:33N 34°11' E 132°22'1110.8
2014-Oct-23 02:33N 34°21' E 132°26'0 0.2
2014-Oct-23 01:34N 34°21' E 132°26'0 0.0
2014-Oct-23 00:33N 34°21' E 132°26'0 0.0
2014-Oct-22 23:33N 34°21' E 132°26'7 7.2
2014-Oct-22 22:34N 34°15' E 132°21'2 2.2
2014-Oct-22 21:33N 34°14' E 132°20'11 9.1
2014-Oct-22 20:21N 34°04' E 132°26'11912.1
2014-Oct-22 10:33N 34°33' E 134°45'1514.3
2014-Oct-22 09:29N 34°36' E 135°03'1111.4
2014-Oct-22 08:33N 34°39' E 135°16'2 1.7
2014-Oct-22 07:33N 34°40' E 135°14'3 2.6
2014-Oct-22 06:33N 34°41' E 135°17'0 0.2
2014-Oct-22 05:33N 34°41' E 135°17'3 3.2
2014-Oct-22 04:32N 34°40' E 135°14'0 0.0
2014-Oct-22 03:33N 34°40' E 135°14'3 2.8
2014-Oct-22 02:33N 34°41' E 135°17'0 0.1
2014-Oct-22 01:33N 34°41' E 135°17'1 1.3
2014-Oct-22 00:33N 34°40' E 135°15'1 1.3
2014-Oct-21 23:33N 34°40' E 135°14'3 3.1
2014-Oct-21 22:33N 34°37' E 135°15'  

Dump ship's entire track history